Regional Weather Roundup
Issued by NWS

Home | Current Version | Previous Version | Text Only | Print | Product List | Glossary On
Versions: 1 2 3 4 5 6 7 8 9 10 11 12 13 14 15 16 17 18 19 20 21 22 23 24 25 26 27 28 29 30 31 32 33 34 35 36 37 38 39 40 41 42 43 44 45 46 47 48 49 50
000
ASUS45 KREV 301110
RWRNV
NEVADA REGIONAL WEATHER ROUNDUP
NATIONAL WEATHER SERVICE RENO NV
400 AM PDT SUN APR 30 2017

NOTE: "FAIR" INDICATES FEW OR NO CLOUDS BELOW 12,000 FEET WITH NO
SIGNIFICANT WEATHER AND/OR OBSTRUCTIONS TO VISIBILITY.

NVZ001-003-004-301200-
WESTERN NEVADA

CITY           SKY/WX    TMP DP  RH WIND       PRES   REMARKS
RENO           CLEAR     44  26  49 CALM      30.22S
CARSON CITY    FAIR      36  23  60 NW3       30.24S
MINDEN         FAIR      30  21  69 SE7       30.24S
FALLON         CLEAR     38  18  44 SE9       30.20R
LOVELOCK       CLEAR     33  20  58 CALM      30.20R
HAWTHORNE      CLEAR     43  12  28 SW3       30.21R
$$

NVZ002-CAZ072-073-301200-
NORTHERN AND CENTRAL SIERRA

CITY           SKY/WX    TMP DP  RH WIND       PRES   REMARKS
S. LAKE TAHOE  CLEAR     30  25  81 CALM      30.27S
TRUCKEE        CLEAR     28  28 100 CALM      30.28R
SQUAW VLY 8000   N/A     34  23  64 NW3         N/A
SUSANVILLE     CLEAR     36  30  80 W6        30.22R
MAMMOTH LAKES  FAIR      32  19  60 CALM      30.29S
$$

NVZ030-031-036-301200-
NORTHERN NEVADA

CITY           SKY/WX    TMP DP  RH WIND       PRES   REMARKS
ELKO           CLEAR     32  26  78 CALM      30.21S
WINNEMUCCA     PTCLDY    37  29  72 S5        30.19R
WENDOVER       PTCLDY    43  30  60 CALM      30.18S
$$

NVZ035-037-301200-
CENTRAL NEVADA

CITY           SKY/WX    TMP DP  RH WIND       PRES   REMARKS
ELY            CLEAR     24  17  74 S12       30.23S
EUREKA           N/A     29  19  66 SW5       30.23R
$$

NVZ013-014-301200-
SOUTH CENTRAL NEVADA

CITY           SKY/WX    TMP DP  RH WIND       PRES   REMARKS
TONOPAH        CLEAR     38  32  79 N14       30.23R
$$

NVZ017-020-022-301200-
SOUTHERN NEVADA

CITY           SKY/WX    TMP DP  RH WIND       PRES   REMARKS
LAS VEGAS      PTCLDY    61  17  18 SW6       30.11F
N. LAS VEGAS   PTCLDY    60  17  18 SW5       30.12S
NELLIS AFB     CLEAR     57  17  20 N6        30.12S
HENDERSON      PTCLDY    52  20  28 SE8       30.15S
MERCURY        PTCLDY    53  12  19 E10       30.13F
$$



USA.gov is the U.S. government's official web portal to all federal, state and local government web resources and services.